星链-37564(STARLINK-37564)

导读

STARLINK-37564(NORAD编号68902)是SpaceX星链星座的低轨通信卫星,属于第二代星链V2 Mini批次。它采用紧凑平板设计,配备相控阵天线与激光星间链路技术,支持直接卫星间通信,单星带宽可达100Gbps,大幅提升网络传输效率。作为近地轨道卫星,运行在低轨轨道,旨在为全球提供高速低延迟宽带互联网服务,覆盖偏远地区、海洋等传统网络盲区,服务包括流媒体、在线通信等场景,目前在轨正常运行,是星链全球星座组网的组成部分。

基本信息
目录编号:
68902
目录名称:
STARLINK-37564
国际标识:
2026-097H
轨道中心:
EARTH
卫星名称:
星链-37564
卫星全名:
星链-37564(STARLINK-37564)
卫星状态:
在轨 (已飞行136 天)
发射日期:
2026-04-30 UTC
国别 :
美国 (US)
星等 :
--
该卫星已列入 空间交会检测服务 Space Conjunction Data Service (SCDS) ,当前飞行风险评估等级: 无高风险
轨道信息
数据来源 国际轨道数据
星历时间: 2026-09-13T09:30:33+0800
9小时前
查看轨道信息
半长轴: 6843.725km
偏心率: 0.0001465
轨道倾角: 97.284°
近地点辐角 79.108°
升交点赤经 90.333°
平近点角 281.033°
近地点: 464.585km
远地点: 466.591km
周期: 93.907分钟
每日圈数: 15.3343
详细信息
固有亮度:
5
最大亮度:
2.5
卫星平台:
Starlink V1.0
覆盖范围:
全球
运营商:
太空探索技术公司
运营商所在国:
美国
制造商(研发单位):
太空探索技术公司
制造商所在国:
美国
使用方式:
暂无
卫星简介
Starlink 计划是 SpaceX 推出的全球卫星互联网项目,通过发射低轨道卫星,为全球尤其是偏远地区提供高速、低延迟的互联网服务。自 2019 年起,Starlink 已部署数千颗卫星,旨在缩小全球数字鸿沟,推动互联网普及。该项目还为军事、航空等行业提供通信支持,带来广泛经济效益。
2D轨道图
3D轨道图
轨道高度分析图
轨道倾角分析图
轨道综合分析图
查看轨道综合分析图
交会数据列表
事件ID 空间交会对象 最接近时刻(TCA) 交会距离 交会风险概率(CRP) 交会风险指数(CRI) 操作
CDM_260914-052105-832106-890221
2026-09-14T
05:21:28+0000
0.335 km
远距离
4.058452E-4 高风险 0.87
CDM_260915-021105-210206-890221
2026-09-15T
02:11:46+0000
2.243 km
极远距离
2.153705E-6 低风险 0.42
CDM_260913-145305-247906-890221
2026-09-13T
14:53:40+0000
2.849 km
极远距离
1.424056E-6 低风险 0.38
CDM_260914-070306-411206-890221
2026-09-14T
07:03:53+0000
2.975 km
极远距离
1.305406E-6 低风险 0.37
与全量物体交会距离演化趋势
与全量物体交会风险概率演化趋势